Find Starlink 5553

NORAD ID: 56333 Int'l Des: 2023-058 Owner: SPXS Country: US Constellation: starlink operational
LEOCIRCULARRETROGRADESSO

現在のビュー

3D地球を読み込み中...

About Starlink 5553

Starlink 5553 (NORAD 56333) is a starlink constellation satellite (v1.5) launched Apr 27, 2023 by SPXS of US. It operates in LEO, CIRCULAR, RETROGRADE, SSO orbit with a mass of 300.00 kg.

Starlink 5553について

説明を読み込み中...

次回通過

Passes for default location (London). Set your location on the main map for personalized predictions.

高度履歴

Loading altitude history...

軌道要素

1 56333U 23058S 26167.57609230 -.00000330 00000-0 -18898-4 0 9998
2 56333 97.3502 167.6858 0001801 91.2805 268.8629 15.05650329173079
Epoch: Jun 16, 2026 • Age: 5 hours

現在のステータス

高度 562.6 km
速度 7.58 km/s
衛星直下点 -32.74°S, 9.42°W
打ち上げ日 Apr 27, 2023
運用期間 3.1 years
タイプ internet

技術仕様

分類 Payload
質量 300.00 kg
乾燥質量 260.00 kg
総質量 300.00 kg
長さ 0.20 m
直径 2.80 m
スパン 9.00 m
形状 Box + pan
製造者 SPXS
バスタイプ Starlink
フェーズステータス In Orbit
所有者/国 SPXS/US

Most Searched